Temp
-13 -13 -13 -13 -13 -13 -13 -14 -14 -14 -14 -14 -15 -15 -15 -15 -15 -15 -15 -15 -15 -15 -15 -15 -15 -15 -15 -14 -14 -14 -14 -14 -14 -14 -13 -13 -13 -13 -13 -12 -13 -12 -12 -12
-13 -13 -13 -13 -13 -13 -13 -13 -13 -14 -14 -14 -14 -14 -14 -14 -14 -15 -15 -15 -15 -15 -15 -15 -15 -15 -15 -15 -14 -14 -14 -14 -13 -13 -13 -13 -13 -12 -12 -12 -12 -12 -12 -12
-13 -13 -13 -13 -13 -12 -13 -13 -13 -13 -13 -14 -13 -14 -14 -14 -14 -14 -14 -14 -14 -14 -14 -14 -14 -14 -14 -14 -14 -14 -14 -13 -13 -13 -12 -12 -12 -12 -12 -12 -12 -12 -12 -12
-13 -13 -13 -13 -13 -13 -12 -12 -13 -13 -12 -13 -13 -13 -13 -13 -13 -13 -13 -14 -14 -14 -14 -14 -14 -14 -14 -13 -13 -13 -13 -12 -12 -12 -12 -12 -12 -12 -12 -12 -12 -12 -12 -12
-13 -13 -13 -13 -13 -13 -13 -12 -12 -12 -13 -12 -12 -12 -13 -13 -13 -13 -13 -13 -13 -13 -13 -13 -13 -13 -13 -12 -12 -12 -12 -12 -12 -12 -12 -12 -13 -12 -12 -12 -12 -12 -12 -12
-13 -13 -13 -13 -13 -13 -13 -13 -13 -12 -12 -12 -12 -12 -12 -12 -12 -12 -12 -12 -12 -12 -12 -12 -12 -12 -12 -12 -12 -12 -12 -12 -12 -13 -12 -12 -12 -12 -12 -11 -11 -11 -11 -11
-14 -13 -13 -13 -13 -13 -13 -13 -13 -13 -12 -12 -12 -12 -12 -12 -12 -12 -12 -12 -12 -11 -11 -11 -11 -11 -11 -11 -11 -11 -11 -11 -11 -12 -11 -11 -12 -11 -12 -12 -12 -11 -11 -12
-14 -14 -14 -14 -14 -14 -13 -13 -13 -13 -13 -12 -12 -12 -12 -12 -12 -12 -12 -12 -12 -12 -11 -11 -11 -11 -11 -11 -11 -11 -11 -11 -11 -11 -12 -12 -12 -12 -12 -12 -12 -12 -12 -13
-14 -14 -14 -14 -14 -14 -14 -14 -14 -13 -13 -13 -13 -13 -12 -12 -12 -12 -12 -12 -12 -12 -12 -12 -12 -12 -11 -11 -11 -11 -11 -11 -11 -11 -11 -12 -12 -12 -13 -13 -13 -13 -13 -13
-14 -14 -14 -14 -14 -14 -14 -14 -14 -14 -13 -13 -14 -13 -13 -13 -13 -12 -12 -12 -12 -12 -12 -12 -12 -12 -12 -12 -12 -12 -12 -12 -12 -12 -12 -12 -12 -12 -12 -12 -13 -13 -13 -13
-14 -14 -15 -14 -14 -14 -14 -14 -14 -14 -14 -14 -14 -14 -13 -14 -13 -13 -13 -12 -12 -12 -12 -13 -13 -12 -12 -13 -13 -13 -13 -13 -13 -13 -13 -13 -12 -12 -12 -12 -13 -13 -13 -13
-15 -15 -15 -15 -15 -15 -15 -15 -15 -15 -14 -14 -14 -14 -14 -14 -14 -13 -13 -13 -13 -13 -13 -13 -12 -13 -13 -13 -13 -13 -13 -13 -13 -13 -14 -13 -14 -13 -13 -13 -13 -14 -13 -14
-16 -16 -16 -15 -15 -15 -15 -15 -15 -15 -15 -14 -14 -14 -14 -14 -14 -14 -13 -13 -13 -13 -13 -13 -13 -13 -13 -13 -14 -14 -14 -14 -14 -14 -14 -14 -14 -14 -14 -15 -14 -14 -14 -14
-16 -16 -16 -16 -16 -15 -15 -15 -15 -15 -14 -14 -15 -15 -15 -15 -14 -14 -14 -14 -14 -14 -14 -14 -14 -14 -14 -14 -14 -15 -15 -14 -14 -13 -14 -14 -15 -15 -14 -15 -15 -15 -15 -15
-16 -16 -16 -16 -16 -16 -16 -15 -15 -15 -15 -14 -15 -15 -15 -15 -15 -14 -14 -14 -14 -14 -14 -14 -14 -15 -14 -14 -14 -16 -16 -16 -16 -14 -15 -15 -14 -15 -15 -16 -16 -16 -16 -16
-16 -16 -17 -17 -16 -16 -16 -15 -15 -15 -15 -14 -14 -15 -16 -15 -15 -14 -14 -14 -14 -14 -14 -15 -15 -15 -15 -15 -16 -17 -16 -16 -16 -17 -16 -16 -16 -16 -16 -16 -16 -15 -15 -15
-17 -17 -17 -17 -17 -17 -16 -16 -15 -15 -15 -15 -14 -15 -16 -16 -15 -15 -14 -15 -15 -15 -15 -16 -16 -16 -16 -16 -16 -17 -17 -16 -16 -16 -17 -17 -17 -17 -16 -16 -16 -16 -16 -16
-17 -17 -17 -17 -17 -17 -17 -17 -16 -15 -15 -15 -15 -16 -16 -16 -16 -16 -16 -16 -16 -16 -16 -17 -17 -17 -17 -16 -16 -17 -17 -17 -17 -17 -16 -17 -17 -17 -17 -17 -17 -17 -17 -17
-17 -17 -17 -17 -17 -17 -18 -17 -16 -16 -16 -15 -15 -17 -17 -17 -17 -16 -17 -17 -16 -16 -16 -17 -17 -18 -18 -17 -17 -17 -17 -17 -17 -17 -17 -17 -17 -17 -17 -17 -17 -17 -17 -17
-18 -18 -18 -17 -18 -18 -18 -17 -17 -17 -17 -16 -16 -18 -18 -18 -18 -18 -18 -17 -17 -17 -17 -17 -18 -18 -18 -18 -18 -18 -18 -18 -17 -17 -18 -18 -18 -18 -17 -17 -18 -18 -18 -18
-19 -19 -18 -18 -18 -18 -18 -18 -17 -17 -17 -17 -18 -18 -19 -19 -19 -18 -19 -19 -18 -18 -17 -18 -17 -18 -19 -19 -19 -18 -18 -18 -18 -18 -19 -19 -18 -19 -19 -19 -18 -19 -19 -20
-20 -19 -19 -19 -19 -19 -19 -18 -18 -18 -18 -18 -18 -18 -19 -19 -19 -19 -19 -19 -19 -19 -18 -18 -18 -19 -19 -19 -20 -20 -19 -19 -19 -19 -19 -19 -19 -19 -20 -20 -20 -19 -19 -20
-20 -20 -20 -20 -20 -19 -18 -18 -18 -20 -19 -19 -19 -19 -19 -19 -20 -19 -19 -19 -19 -20 -19 -19 -19 -20 -21 -21 -20 -20 -20 -20 -20 -20 -20 -21 -21 -21 -22 -21 -21 -21 -21 -21
-21 -21 -21 -21 -20 -19 -19 -20 -21 -21 -21 -20 -20 -20 -20 -20 -20 -20 -20 -21 -20 -20 -20 -20 -21 -22 -22 -21 -21 -20 -20 -21 -21 -21 -21 -21 -23 -23 -24 -24 -23 -23 -22 -22
-22 -21 -21 -20 -20 -21 -21 -21 -21 -22 -22 -22 -22 -22 -22 -22 -22 -22 -21 -21 -21 -21 -21 -22 -23 -22 -23 -23 -23 -22 -22 -22 -23 -23 -23 -24 -24 -24 -24 -23 -23 -23 -23 -23
-22 -22 -21 -21 -21 -22 -22 -22 -23 -23 -23 -23 -23 -23 -23 -23 -22 -22 -21 -22 -21 -23 -25 -25 -24 -24 -23 -23 -22 -23 -23 -23 -24 -24 -25 -25 -25 -25 -24 -23 -24 -24 -24 -24
-22 -22 -22 -22 -23 -23 -23 -23 -24 -24 -24 -24 -24 -24 -23 -23 -23 -22 -22 -23 -25 -26 -26 -26 -26 -25 -25 -25 -25 -25 -25 -25 -25 -25 -26 -25 -25 -25 -25 -25 -25 -25 -25 -26
Height
5765 5761 5757 5753 5750 5747 5745 5743 5741 5738 5736 5735 5732 5732 5731 5731 5732 5732 5733 5734 5735 5737 5738 5740 5743 5745 5747 5749 5751 5753 5755 5757 5759 5761 5762 5763 5764 5764 5763 5763 5763 5760 5759 5758
5768 5765 5761 5757 5755 5752 5750 5748 5746 5745 5743 5742 5740 5740 5739 5739 5738 5737 5738 5740 5740 5741 5742 5744 5745 5747 5748 5749 5751 5752 5754 5756 5757 5759 5761 5761 5761 5761 5760 5759 5758 5758 5756 5755
5769 5768 5764 5761 5758 5755 5754 5751 5750 5749 5748 5746 5745 5744 5744 5744 5744 5744 5743 5744 5744 5745 5746 5747 5748 5749 5750 5751 5751 5752 5754 5754 5756 5757 5758 5759 5758 5758 5757 5756 5755 5754 5753 5749
5769 5767 5766 5763 5761 5758 5756 5754 5752 5751 5750 5749 5748 5748 5747 5747 5747 5748 5748 5748 5748 5748 5749 5750 5750 5751 5751 5751 5752 5752 5753 5754 5755 5755 5755 5755 5755 5754 5752 5752 5751 5750 5748 5746
5769 5767 5765 5764 5762 5760 5758 5755 5754 5752 5751 5750 5749 5749 5748 5749 5748 5748 5748 5749 5749 5750 5751 5751 5751 5751 5751 5752 5753 5753 5753 5754 5754 5753 5753 5753 5752 5750 5749 5748 5746 5746 5744 5742
5766 5765 5765 5763 5762 5760 5758 5756 5754 5753 5752 5751 5751 5750 5749 5748 5748 5748 5748 5748 5748 5748 5750 5750 5751 5751 5751 5751 5752 5751 5751 5751 5751 5751 5750 5750 5750 5747 5746 5743 5742 5742 5740 5738
5762 5762 5762 5761 5760 5759 5758 5756 5755 5753 5752 5751 5750 5749 5749 5749 5749 5748 5748 5747 5747 5747 5747 5748 5748 5749 5749 5749 5748 5748 5748 5748 5748 5747 5745 5745 5743 5741 5741 5738 5738 5737 5734 5732
5757 5757 5757 5757 5757 5756 5755 5754 5753 5751 5750 5749 5749 5749 5748 5747 5746 5746 5746 5746 5745 5745 5745 5745 5745 5745 5745 5745 5745 5744 5744 5743 5743 5742 5741 5739 5736 5736 5735 5733 5729 5727 5725 5722
5750 5751 5751 5751 5751 5751 5751 5750 5749 5749 5748 5746 5745 5745 5744 5745 5744 5744 5743 5742 5741 5741 5740 5740 5740 5739 5739 5739 5739 5738 5738 5737 5738 5736 5736 5733 5728 5726 5725 5724 5722 5720 5717 5714
5742 5743 5744 5745 5745 5745 5745 5745 5744 5743 5742 5742 5741 5740 5739 5738 5738 5738 5738 5737 5737 5736 5735 5735 5735 5734 5734 5733 5732 5731 5730 5729 5729 5726 5725 5725 5720 5719 5719 5716 5716 5711 5708 5705
5733 5734 5735 5736 5737 5738 5738 5737 5737 5738 5736 5735 5734 5734 5733 5732 5731 5731 5731 5731 5730 5729 5729 5728 5728 5728 5726 5726 5725 5723 5721 5720 5721 5719 5717 5715 5713 5711 5710 5706 5705 5701 5699 5696
5723 5724 5725 5726 5726 5727 5728 5729 5729 5729 5728 5728 5728 5726 5725 5724 5723 5723 5723 5723 5722 5721 5719 5719 5718 5718 5717 5717 5718 5714 5715 5713 5713 5711 5708 5705 5701 5700 5697 5695 5694 5692 5689 5687
5711 5713 5716 5716 5717 5717 5718 5718 5719 5719 5720 5718 5719 5718 5717 5716 5715 5713 5714 5712 5712 5711 5710 5709 5709 5710 5709 5708 5708 5706 5704 5702 5701 5698 5698 5693 5690 5686 5684 5683 5679 5676 5673 5670
5699 5701 5704 5704 5706 5707 5708 5707 5708 5708 5708 5708 5707 5707 5707 5706 5706 5705 5704 5703 5702 5701 5701 5700 5700 5698 5697 5698 5697 5697 5695 5691 5690 5688 5686 5684 5680 5675 5673 5670 5666 5662 5657 5654
5688 5689 5691 5692 5693 5695 5697 5698 5698 5698 5698 5696 5695 5696 5695 5695 5695 5695 5694 5692 5691 5690 5691 5690 5690 5689 5685 5683 5685 5688 5682 5678 5674 5673 5673 5669 5666 5664 5660 5656 5652 5648 5644 5640
5676 5678 5679 5679 5680 5681 5684 5686 5688 5687 5688 5687 5685 5685 5684 5683 5682 5681 5680 5679 5679 5678 5678 5678 5677 5676 5673 5670 5674 5675 5667 5665 5661 5659 5657 5653 5650 5647 5643 5640 5636 5632 5629 5624
5662 5664 5666 5669 5670 5669 5670 5673 5675 5675 5675 5676 5675 5674 5677 5674 5670 5668 5668 5666 5664 5663 5662 5663 5663 5663 5661 5660 5661 5654 5655 5651 5649 5647 5644 5641 5639 5635 5630 5626 5623 5618 5613 5607
5649 5651 5652 5655 5657 5658 5659 5658 5659 5659 5661 5663 5663 5662 5663 5664 5662 5659 5657 5656 5655 5653 5651 5652 5651 5649 5648 5647 5644 5645 5640 5638 5636 5634 5631 5627 5622 5619 5615 5611 5607 5602 5597 5592
5633 5637 5640 5641 5643 5646 5645 5645 5647 5647 5648 5646 5650 5649 5647 5649 5649 5650 5649 5645 5643 5642 5642 5641 5639 5640 5637 5632 5631 5627 5625 5623 5621 5619 5615 5611 5607 5602 5597 5593 5588 5584 5578 5573
5619 5623 5626 5628 5630 5631 5632 5633 5634 5635 5634 5633 5636 5635 5635 5635 5635 5635 5636 5632 5632 5631 5632 5629 5628 5628 5623 5619 5617 5614 5611 5608 5605 5601 5597 5592 5588 5584 5581 5576 5570 5564 5560 5555
5605 5607 5611 5614 5615 5617 5618 5618 5619 5618 5619 5622 5622 5620 5620 5620 5621 5620 5619 5617 5617 5616 5616 5615 5613 5612 5612 5607 5601 5599 5596 5592 5589 5584 5580 5575 5571 5567 5564 5560 5554 5547 5539 5532
5591 5595 5597 5600 5601 5603 5604 5604 5604 5603 5602 5604 5604 5605 5605 5605 5605 5604 5603 5602 5601 5600 5600 5597 5595 5597 5593 5591 5587 5583 5581 5576 5572 5567 5563 5559 5555 5547 5542 5538 5531 5524 5519 5513
5577 5581 5584 5587 5588 5587 5589 5589 5587 5583 5583 5584 5585 5586 5587 5586 5587 5586 5586 5584 5586 5586 5584 5582 5582 5575 5571 5569 5567 5564 5560 5557 5552 5548 5542 5539 5533 5526 5517 5512 5507 5499 5496 5492
5564 5566 5570 5572 5573 5574 5574 5571 5568 5566 5566 5567 5567 5568 5571 5569 5569 5570 5570 5567 5565 5567 5569 5568 5561 5557 5552 5546 5543 5544 5542 5536 5531 5526 5521 5516 5509 5504 5498 5489 5484 5477 5471 5467
5550 5554 5557 5562 5561 5558 5555 5552 5551 5549 5548 5548 5549 5551 5554 5553 5553 5555 5554 5549 5550 5552 5549 5544 5540 5536 5530 5526 5523 5523 5522 5518 5511 5505 5500 5495 5487 5478 5475 5471 5461 5452 5444 5438
5536 5543 5547 5546 5544 5541 5538 5535 5533 5531 5529 5530 5531 5534 5536 5538 5535 5538 5538 5533 5536 5534 5527 5520 5518 5515 5511 5506 5505 5503 5499 5494 5490 5485 5478 5471 5463 5455 5449 5444 5437 5427 5417 5410
5524 5532 5531 5527 5526 5523 5520 5515 5514 5512 5513 5514 5513 5516 5517 5518 5517 5524 5522 5518 5516 5509 5506 5501 5496 5494 5491 5487 5483 5481 5480 5476 5468 5463 5456 5448 5440 5430 5423 5416 5412 5403 5397 5387
Wind_Speed
29 30 29 29 29 26 23 24 24 26 28 27 27 26 26 21 18 18 18 17 17 17 17 18 17 15 14 13 13 13 13 14 14 15 15 11 9 11 8 6 5 7 5 10
24 25 26 26 27 26 24 21 19 20 22 21 22 23 22 22 22 21 19 16 13 13 14 14 14 14 13 12 11 11 12 13 13 13 11 9 9 9 6 5 4 6 6 8
17 20 22 22 22 24 24 21 20 15 15 16 18 18 18 18 17 16 16 15 15 14 14 13 12 12 12 11 11 10 10 10 10 10 8 8 8 7 5 3 5 6 7 13
14 14 16 19 19 18 20 20 19 16 15 11 11 12 12 13 13 12 11 10 9 9 9 7 6 6 7 8 8 9 10 9 9 9 10 8 8 9 9 8 10 9 16 15
16 14 13 14 14 15 14 15 16 16 14 12 12 8 6 6 7 7 7 6 6 5 3 4 6 6 6 6 7 7 8 8 8 9 8 9 11 13 13 14 16 14 17 20
17 17 16 13 13 12 13 11 11 12 12 11 9 7 8 5 3 2 2 2 2 1 1 1 2 3 4 6 6 7 9 8 8 11 11 12 14 17 17 20 21 20 23 23
20 19 19 16 13 12 13 13 10 8 8 9 9 8 7 5 3 3 2 2 3 4 5 6 6 8 9 10 10 11 12 13 13 14 18 19 21 22 23 27 26 28 28 29
23 22 20 19 17 15 14 14 14 13 10 9 9 9 9 9 9 10 10 9 7 5 6 7 8 10 11 13 13 15 16 17 17 18 21 24 27 27 28 30 33 32 33 33
27 24 23 22 22 22 20 18 16 17 16 14 13 13 12 12 13 14 14 15 15 14 14 14 15 15 16 17 19 21 22 23 24 26 27 28 31 32 30 29 32 30 29 31
31 30 28 26 24 26 26 25 23 21 20 20 19 18 17 17 17 17 18 18 19 19 20 21 22 22 23 23 24 25 27 28 27 28 29 29 34 35 33 34 33 32 33 33
35 34 33 32 30 29 29 29 28 28 26 24 23 23 23 23 22 22 23 23 23 24 24 24 24 24 27 27 28 29 31 31 29 32 36 37 37 38 36 36 34 37 37 38
39 38 38 37 37 36 35 33 33 32 32 31 28 28 28 28 28 27 28 28 29 30 30 30 30 29 28 28 26 32 33 35 34 36 36 39 39 38 39 40 40 40 42 44
45 44 39 39 40 41 41 39 38 37 34 36 35 33 32 32 30 32 33 34 33 33 34 33 34 34 34 32 30 30 33 34 35 39 36 40 42 45 48 44 46 47 49 50
48 46 42 40 39 40 42 42 42 39 36 35 39 38 34 31 31 31 32 34 37 39 39 39 35 35 39 37 38 35 34 42 46 49 48 48 45 47 48 48 50 53 55 56
49 46 46 45 42 41 41 41 38 37 39 39 38 38 38 36 34 35 35 37 41 43 43 42 42 38 42 43 40 33 36 41 46 48 47 51 54 54 53 54 55 57 59 60
50 47 48 47 46 43 43 42 39 38 38 39 39 38 36 35 37 40 40 39 41 45 46 45 45 47 48 48 39 33 42 45 48 47 46 47 49 52 53 55 57 59 60 58
49 49 48 50 50 46 44 43 43 40 39 38 36 35 35 38 38 38 39 37 36 36 36 36 38 39 43 42 36 42 40 42 44 44 44 46 47 49 51 51 53 55 56 57
51 49 48 49 51 49 47 48 49 45 43 43 41 34 32 34 36 36 36 36 36 37 37 33 32 35 36 40 42 41 44 44 44 47 49 51 53 55 55 57 58 57 58 60
52 51 52 51 51 52 48 49 51 47 45 44 42 37 34 33 36 37 37 38 39 41 40 40 40 36 38 43 43 45 47 48 50 52 54 56 58 60 62 63 63 63 64 67
57 55 56 56 52 53 53 53 53 53 50 48 47 44 42 42 41 40 39 43 42 44 45 45 44 44 45 48 51 53 55 56 57 59 62 64 64 66 68 68 68 70 71 69
56 56 57 57 54 51 53 54 54 54 53 51 49 48 48 47 47 47 46 47 48 50 51 53 54 54 52 55 57 59 59 61 63 65 66 67 67 66 66 69 72 70 71 73
53 52 53 52 51 52 52 53 54 55 55 54 54 53 52 51 50 49 50 51 53 55 55 57 58 58 58 57 54 56 60 63 63 65 67 69 71 73 74 73 74 77 78 77
51 50 50 50 51 53 55 56 56 57 58 58 57 56 55 54 54 55 55 57 57 56 58 59 57 57 56 57 61 63 66 67 67 68 70 70 71 74 75 76 78 82 82 82
51 51 51 51 53 55 56 56 56 57 58 59 58 57 56 56 57 58 60 61 62 63 62 59 59 58 61 64 67 70 70 70 70 72 74 76 77 77 78 80 81 84 85 84
55 54 54 53 54 55 54 55 57 58 58 57 57 58 57 56 58 57 59 62 63 62 62 61 62 65 67 68 70 72 72 73 76 77 78 79 79 80 81 82 84 84 84 84
60 58 55 55 55 54 55 56 58 60 61 61 59 58 59 59 60 61 63 67 65 63 61 64 66 69 74 77 78 77 77 78 80 79 78 79 79 81 82 81 80 81 81 80
59 56 57 57 56 57 58 59 61 62 62 61 63 64 64 65 68 66 67 67 63 63 64 65 67 72 74 75 78 79 78 79 80 78 77 78 79 80 78 78 77 76 72 69
Wind_Direction
28 30 33 37 39 43 51 55 59 59 57 61 66 75 83 88 95 96 105 117 129 136 139 143 147 157 164 171 179 186 199 204 212 224 236 224 244 267 285 291 295 304 344 277
17 23 28 31 37 38 40 48 54 61 67 66 69 71 74 82 91 96 100 107 120 135 139 145 152 162 171 178 187 196 206 208 205 204 214 230 247 252 259 278 293 302 346 303
10 12 16 26 29 33 35 36 42 48 58 70 72 75 75 73 75 83 94 99 105 113 120 129 138 145 155 166 173 176 182 189 199 213 219 222 229 241 246 270 287 295 298 302
346 2 7 7 18 26 30 32 31 34 41 44 63 74 77 85 86 83 81 85 98 107 117 125 140 157 168 179 183 183 187 192 203 215 221 225 242 260 271 276 285 291 288 293
322 333 348 356 360 5 21 25 29 25 23 32 39 32 51 63 69 79 85 91 90 88 117 145 162 166 168 179 192 201 210 222 226 243 230 233 248 268 276 280 287 293 300 301
305 312 323 334 344 346 351 8 17 16 20 13 10 21 30 23 11 351 350 357 333 309 9 304 288 265 252 255 249 249 259 268 267 263 286 272 269 277 282 286 294 300 297 303
294 300 308 317 325 329 332 335 343 351 351 357 355 345 338 334 342 345 328 296 275 283 282 280 271 267 258 256 262 263 264 271 268 268 287 286 287 288 289 290 292 296 297 297
287 292 297 303 307 312 314 318 320 325 320 314 316 321 318 303 300 302 290 281 269 263 266 264 269 270 273 274 272 272 271 271 269 271 277 282 279 280 282 286 289 291 295 295
279 283 287 293 297 301 302 301 303 305 307 307 300 291 294 296 297 288 284 282 282 278 278 275 272 269 266 266 270 273 273 273 275 276 277 278 281 283 284 283 283 288 284 285
275 279 281 284 287 292 295 297 295 293 292 295 298 297 290 281 278 281 287 283 277 275 273 275 280 279 277 277 274 277 277 277 281 282 283 281 282 286 287 286 288 287 285 285
268 272 277 280 283 283 285 288 292 293 288 283 285 287 287 285 281 276 274 274 274 275 272 270 273 276 277 279 279 281 281 280 284 287 287 286 287 289 289 286 287 286 287 287
262 265 271 275 278 280 279 280 282 285 286 285 283 282 280 279 282 281 279 279 276 273 272 272 271 272 271 275 276 278 276 277 285 289 291 292 292 292 288 287 290 290 287 291
260 262 266 269 273 278 279 279 281 282 283 282 280 277 277 279 279 277 277 275 277 279 279 278 280 280 277 275 274 275 280 284 282 280 282 283 287 289 290 294 292 292 290 289
261 263 269 269 268 271 272 277 282 281 282 284 280 278 277 276 278 277 275 274 275 275 277 278 280 280 280 280 277 276 277 274 276 278 278 281 281 282 285 287 289 290 292 293
260 262 265 267 270 270 272 274 276 277 279 280 279 275 272 276 275 272 272 272 274 277 281 281 280 279 278 277 280 286 280 282 277 278 280 278 279 280 281 283 284 285 286 288
259 262 265 267 269 271 278 272 274 275 273 277 278 275 272 273 273 274 274 275 274 274 276 277 277 276 277 278 281 285 275 277 282 285 285 284 284 285 286 287 289 292 295 296
257 258 262 266 267 270 275 273 275 278 278 279 277 277 272 274 274 272 273 275 277 278 279 279 279 278 280 284 289 276 287 285 287 289 288 288 289 291 293 294 296 296 296 296
258 260 263 265 265 270 273 274 277 280 279 283 284 286 282 276 270 269 269 271 275 279 283 286 282 281 285 285 281 286 285 288 289 290 292 293 293 292 291 291 293 292 290 290
256 261 263 263 266 270 270 271 275 278 280 280 286 289 284 282 278 275 270 268 269 271 275 278 280 283 284 286 286 286 287 288 289 291 290 289 288 288 290 292 293 292 292 294
254 257 259 262 265 267 268 268 271 273 278 281 283 284 282 281 279 275 270 271 268 272 274 274 277 283 284 285 287 287 288 290 289 289 288 289 288 289 291 291 292 294 295 294
251 255 258 262 265 266 267 268 270 272 276 279 280 281 280 279 278 277 275 274 273 273 274 275 277 279 283 285 286 287 288 288 289 289 289 289 289 288 288 289 290 289 289 290
252 255 257 259 261 261 264 267 271 275 277 278 278 277 277 277 277 277 276 276 275 276 278 278 279 284 284 283 282 282 282 284 284 284 284 284 285 287 288 289 288 288 289 291
250 252 256 258 261 265 267 269 273 275 276 277 278 279 280 282 283 282 282 281 282 284 284 288 290 287 286 286 284 284 284 285 287 288 289 290 289 289 292 293 293 292 291 293
256 257 260 265 271 270 273 274 275 276 277 277 277 278 279 281 282 283 285 288 288 290 293 294 290 290 288 287 287 286 287 291 292 292 291 292 294 294 295 297 297 297 297 297
258 261 264 270 273 273 273 272 273 273 274 275 275 275 277 280 283 285 287 289 291 295 297 294 290 287 288 288 288 289 291 291 291 292 294 295 297 298 298 297 297 297 296 295
259 260 265 268 267 267 268 269 270 271 271 271 273 277 279 280 282 285 287 290 295 295 291 287 286 286 286 286 288 289 290 291 293 296 298 298 299 300 299 299 298 296 296 296
259 263 264 263 264 264 265 268 270 272 272 275 278 281 282 282 282 286 288 287 285 284 285 285 285 286 287 289 290 291 293 295 296 298 300 301 301 299 299 298 297 297 299 298